| time (UTC) | temp C | wind direction | speed KPH | gust KPH | rain 1hr cm | rain 24hr cm | rain mn cm | humidity % | barometer mb |
| 20260906205904 | 18 | 0.0 | 0.0 | 0.00 | 0.00 | 0.00 | 65 | 1026.7 | |
| 20260906204905 | 18 | 0.0 | 0.0 | 0.00 | 0.00 | 0.00 | 65 | 1026.6 | |
| 20260906203905 | 18 | 0.0 | 0.0 | 0.00 | 0.00 | 0.00 | 64 | 1026.7 | |
| 20260906202906 | 18 | 0.0 | 0.0 | 0.00 | 0.00 | 0.00 | 64 | 1026.7 | |
| 20260906201906 | 18 | 0.0 | 0.0 | 0.00 | 0.00 | 0.00 | 64 | 1026.7 | |
| 20260906200907 | 18 | 0.0 | 0.0 | 0.00 | 0.00 | 0.00 | 63 | 1026.8 | |
| 20260906195907 | 19 | 0.0 | 0.0 | 0.00 | 0.00 | 0.00 | 62 | 1026.9 | |
| 20260906194915 | 19 | 0.0 | 0.0 | 0.00 | 0.00 | 0.00 | 62 | 1026.9 | |
| 20260906192908 | 19 | 0.0 | 0.0 | 0.00 | 0.00 | 0.00 | 62 | 1026.9 | |
| 20260906190904 | 20 | 0.0 | 0.0 | 0.00 | 0.00 | 0.00 | 61 | 1027.0 | |
| 20260906185904 | 20 | 0.0 | 0.0 | 0.00 | 0.00 | 0.00 | 60 | 1027.0 | |
| 20260906184905 | 20 | 0.0 | 0.0 | 0.00 | 0.00 | 0.00 | 59 | 1027.0 | |
| 20260906183905 | 20 | 0.0 | 0.0 | 0.00 | 0.00 | 0.00 | 58 | 1026.8 | |
| 20260906182905 | 21 | 0.0 | 0.0 | 0.00 | 0.00 | 0.00 | 57 | 1026.8 | |
| 20260906181904 | 21 | 0.0 | 0.0 | 0.00 | 0.00 | 0.00 | 56 | 1026.8 | |
| 20260906180904 | 21 | 0.0 | 0.0 | 0.00 | 0.00 | 0.00 | 55 | 1026.9 | |
| 20260906175909 | 21 | 0.0 | 0.0 | 0.00 | 0.00 | 0.00 | 54 | 1027.0 | |
| 20260906173905 | 22 | 0.0 | 0.0 | 0.00 | 0.00 | 0.00 | 51 | 1026.7 | |
| 20260906172905 | 22 | 0.0 | 0.0 | 0.00 | 0.00 | 0.00 | 50 | 1026.8 | |
| 20260906171906 | 23 | 0.0 | 0.0 | 0.00 | 0.00 | 0.00 | 48 | 1026.6 | |
| 20260906170905 | 23 | 0.0 | 0.0 | 0.00 | 0.00 | 0.00 | 47 | 1026.7 | |
| 20260906165905 | 23 | 0.0 | 0.0 | 0.00 | 0.00 | 0.00 | 47 | 1026.7 | |
| 20260906164904 | 24 | 0.0 | 0.0 | 0.00 | 0.00 | 0.00 | 44 | 1026.7 | |
| 20260906163909 | 24 | 0.0 | 0.0 | 0.00 | 0.00 | 0.00 | 42 | 1026.6 | |
| 20260906161905 | 25 | 0.0 | 0.0 | 0.00 | 0.00 | 0.00 | 40 | 1026.8 | |
| 20260906160905 | 25 | 0.0 | 0.0 | 0.00 | 0.00 | 0.00 | 40 | 1026.9 | |
| 20260906155906 | 26 | 0.0 | 0.0 | 0.00 | 0.00 | 0.00 | 38 | 1026.9 | |
| 20260906154906 | 26 | 0.0 | 0.0 | 0.00 | 0.00 | 0.00 | 39 | 1027.1 | |
| 20260906153909 | 26 | 0.0 | 0.0 | 0.00 | 0.00 | 0.00 | 38 | 1027.0 | |
| 20260906151909 | 27 | 0.0 | 0.0 | 0.00 | 0.00 | 0.00 | 37 | 1027.0 | |
| 20260906150904 | 27 | 0.0 | 0.0 | 0.00 | 0.00 | 0.00 | 36 | 1027.0 | |
| 20260906145906 | 28 | 0.0 | 0.0 | 0.00 | 0.00 | 0.00 | 33 | 1027.2 | |
| 20260906144915 | 28 | 0.0 | 0.0 | 0.00 | 0.00 | 0.00 | 34 | 1027.2 | |
| 20260906142910 | 30 | 0.0 | 0.0 | 0.00 | 0.00 | 0.00 | 31 | 1027.3 | |
| 20260906140904 | 30 | 0.0 | 0.0 | 0.00 | 0.00 | 0.00 | 32 | 1027.4 | |
| 20260906135909 | 30 | 0.0 | 0.0 | 0.00 | 0.00 | 0.00 | 31 | 1027.6 | |
| 20260906133905 | 30 | 0.0 | 0.0 | 0.00 | 0.00 | 0.00 | 31 | 1027.8 | |
| 20260906132907 | 29 | 0.0 | 0.0 | 0.00 | 0.00 | 0.00 | 32 | 1027.9 | |
| 20260906131906 | 30 | 0.0 | 0.0 | 0.00 | 0.00 | 0.00 | 31 | 1027.9 | |
| 20260906130905 | 29 | 0.0 | 0.0 | 0.00 | 0.00 | 0.00 | 34 | 1028.1 | |
| 20260906125904 | 30 | 0.0 | 0.0 | 0.00 | 0.00 | 0.00 | 32 | 1028.1 | |
| 20260906124905 | 29 | 0.0 | 0.0 | 0.00 | 0.00 | 0.00 | 33 | 1028.2 | |
| 20260906123905 | 28 | 0.0 | 0.0 | 0.00 | 0.00 | 0.00 | 35 | 1028.5 | |
| 20260906122910 | 28 | 0.0 | 0.0 | 0.00 | 0.00 | 0.00 | 35 | 1028.6 | |
| 20260906120904 | 27 | 0.0 | 0.0 | 0.00 | 0.00 | 0.00 | 37 | 1029.0 | |
| 20260906115906 | 26 | 0.0 | 0.0 | 0.00 | 0.00 | 0.00 | 39 | 1029.1 | |
| 20260906114905 | 26 | 0.0 | 0.0 | 0.00 | 0.00 | 0.00 | 40 | 1029.3 | |
| 20260906113904 | 26 | 0.0 | 0.0 | 0.00 | 0.00 | 0.00 | 41 | 1029.4 | |
| 20260906112909 | 23 | 0.0 | 0.0 | 0.00 | 0.00 | 0.00 | 45 | 1029.7 | |
| 20260906110904 | 22 | 0.0 | 0.0 | 0.00 | 0.00 | 0.00 | 49 | 1030.1 | |
| 20260906105904 | 21 | 0.0 | 0.0 | 0.00 | 0.00 | 0.00 | 53 | 1030.2 | |
| 20260906104904 | 21 | 0.0 | 0.0 | 0.00 | 0.00 | 0.00 | 56 | 1030.4 | |
| 20260906103908 | 20 | 0.0 | 0.0 | 0.00 | 0.00 | 0.00 | 57 | 1030.6 | |
| 20260906101908 | 17 | 0.0 | 0.0 | 0.00 | 0.00 | 0.00 | 61 | 1030.7 | |
| 20260906100910 | 17 | 0.0 | 0.0 | 0.00 | 0.00 | 0.00 | 63 | 1031.1 | |
| 20260906094908 | 16 | 0.0 | 0.0 | 0.00 | 0.00 | 0.00 | 68 | 1031.4 | |
| 20260906092910 | 16 | 0.0 | 0.0 | 0.00 | 0.00 | 0.00 | 71 | 1031.7 | |
| 20260906090907 | 16 | 0.0 | 0.0 | 0.00 | 0.00 | 0.00 | 73 | 1031.6 | |
| 20260906085907 | 15 | 0.0 | 0.0 | 0.00 | 0.00 | 0.00 | 74 | 1031.6 | |
| 20260906084910 | 15 | 0.0 | 0.0 | 0.00 | 0.00 | 0.00 | 74 | 1031.7 | |
| 20260906082908 | 15 | 0.0 | 0.0 | 0.00 | 0.00 | 0.00 | 75 | 1031.7 | |
| 20260906081904 | 15 | 0.0 | 0.0 | 0.00 | 0.00 | 0.00 | 75 | 1031.7 | |
| 20260906080904 | 15 | 0.0 | 0.0 | 0.00 | 0.00 | 0.00 | 75 | 1031.8 | |
| 20260906075904 | 15 | 0.0 | 0.0 | 0.00 | 0.00 | 0.00 | 76 | 1031.7 | |
| 20260906074904 | 15 | 0.0 | 0.0 | 0.00 | 0.00 | 0.00 | 75 | 1031.8 | |
| 20260906073905 | 14 | 0.0 | 0.0 | 0.00 | 0.00 | 0.00 | 75 | 1031.8 | |
| 20260906072907 | 14 | 0.0 | 0.0 | 0.00 | 0.00 | 0.00 | 75 | 1031.8 | |
| 20260906071909 | 14 | 0.0 | 0.0 | 0.00 | 0.00 | 0.00 | 75 | 1031.6 | |
| 20260906070907 | 14 | 0.0 | 0.0 | 0.00 | 0.00 | 0.00 | 75 | 1031.6 | |
| 20260906065909 | 14 | 0.0 | 0.0 | 0.00 | 0.00 | 0.00 | 74 | 1031.6 | |
| 20260906062908 | 13 | 0.0 | 0.0 | 0.00 | 0.00 | 0.00 | 73 | 1031.7 | |
| 20260906060906 | 13 | 0.0 | 0.0 | 0.00 | 0.00 | 0.00 | 72 | 1031.8 | |
| 20260906055906 | 13 | 0.0 | 0.0 | 0.00 | 0.00 | 0.00 | 72 | 1031.8 | |
| 20260906054905 | 13 | 0.0 | 0.0 | 0.00 | 0.00 | 0.00 | 71 | 1031.6 | |
| 20260906053904 | 13 | 0.0 | 0.0 | 0.00 | 0.00 | 0.00 | 71 | 1031.5 | |
| 20260906052903 | 13 | 0.0 | 0.0 | 0.00 | 0.00 | 0.00 | 70 | 1031.5 | |
| 20260906051904 | 13 | 0.0 | 0.0 | 0.00 | 0.00 | 0.00 | 70 | 1031.4 | |
| 20260906050905 | 13 | 0.0 | 0.0 | 0.00 | 0.00 | 0.00 | 70 | 1031.5 | |
| 20260906045909 | 13 | 0.0 | 0.0 | 0.00 | 0.00 | 0.00 | 70 | 1031.3 | |
| 20260906042903 | 14 | 0.0 | 0.0 | 0.00 | 0.00 | 0.00 | 70 | 1031.2 | |
| 20260906041904 | 14 | 0.0 | 0.0 | 0.00 | 0.00 | 0.00 | 70 | 1031.2 | |
| 20260906040905 | 14 | 0.0 | 0.0 | 0.00 | 0.00 | 0.00 | 70 | 1031.0 | |
| 20260906035906 | 14 | 0.0 | 0.0 | 0.00 | 0.00 | 0.00 | 70 | 1031.1 | |
| 20260906034909 | 14 | 0.0 | 0.0 | 0.00 | 0.00 | 0.00 | 70 | 1031.1 | |
| 20260906025906 | 15 | 0.0 | 0.0 | 0.00 | 0.00 | 0.00 | 70 | 1030.8 | |
| 20260906024905 | 15 | 0.0 | 0.0 | 0.00 | 0.00 | 0.00 | 70 | 1031.0 | |
| 20260906023906 | 15 | 0.0 | 0.0 | 0.00 | 0.00 | 0.00 | 69 | 1031.1 | |
| 20260906022905 | 15 | 0.0 | 0.0 | 0.00 | 0.00 | 0.00 | 69 | 1031.0 | |
| 20260906021909 | 15 | 0.0 | 0.0 | 0.00 | 0.00 | 0.00 | 69 | 1030.8 | |
| 20260906015904 | 15 | 0.0 | 0.0 | 0.00 | 0.00 | 0.00 | 69 | 1030.8 | |
| 20260906014904 | 15 | 0.0 | 0.0 | 0.00 | 0.00 | 0.00 | 69 | 1030.7 | |
| 20260906013904 | 15 | 0.0 | 0.0 | 0.00 | 0.00 | 0.00 | 69 | 1030.8 | |
| 20260906012904 | 15 | 0.0 | 0.0 | 0.00 | 0.00 | 0.00 | 69 | 1030.7 | |
| 20260906011904 | 15 | 0.0 | 0.0 | 0.00 | 0.00 | 0.00 | 69 | 1030.5 | |
| 20260906010906 | 15 | 0.0 | 0.0 | 0.00 | 0.00 | 0.00 | 69 | 1030.5 | |
| 20260906005907 | 16 | 0.0 | 0.0 | 0.00 | 0.00 | 0.00 | 69 | 1030.5 | |
| 20260906004905 | 16 | 0.0 | 0.0 | 0.00 | 0.00 | 0.00 | 69 | 1030.4 | |
| 20260906003905 | 16 | 0.0 | 0.0 | 0.00 | 0.00 | 0.00 | 69 | 1030.4 | |
| 20260906002908 | 16 | 0.0 | 0.0 | 0.00 | 0.00 | 0.00 | 69 | 1030.3 | |
| 20260906001906 | 16 | 0.0 | 0.0 | 0.00 | 0.00 | 0.00 | 69 | 1030.3 | |
| 20260906000905 | 16 | 0.0 | 0.0 | 0.00 | 0.00 | 0.00 | 69 | 1030.4 | |
| 20260905235907 | 16 | 0.0 | 0.0 | 0.00 | 0.00 | 0.00 | 69 | 1030.3 | |
| 20260905234911 | 16 | 0.0 | 0.0 | 0.00 | 0.00 | 0.00 | 69 | 1030.3 | |
| 20260905232905 | 16 | 0.0 | 0.0 | 0.00 | 0.00 | 0.00 | 69 | 1030.2 | |
| 20260905231905 | 16 | 0.0 | 0.0 | 0.00 | 0.00 | 0.00 | 69 | 1030.1 | |
| 20260905230905 | 16 | 0.0 | 0.0 | 0.00 | 0.00 | 0.00 | 68 | 1030.0 | |
| 20260905225905 | 17 | 0.0 | 0.0 | 0.00 | 0.00 | 0.00 | 68 | 1029.8 | |
| 20260905224906 | 17 | 0.0 | 0.0 | 0.00 | 0.00 | 0.00 | 68 | 1029.8 | |
| 20260905223905 | 17 | 0.0 | 0.0 | 0.00 | 0.00 | 0.00 | 68 | 1029.7 | |
| 20260905222909 | 17 | 0.0 | 0.0 | 0.00 | 0.00 | 0.00 | 67 | 1029.7 | |
| 20260905215911 | 17 | 0.0 | 0.0 | 0.00 | 0.00 | 0.00 | 67 | 1029.4 | |
| 20260905213905 | 17 | 0.0 | 0.0 | 0.00 | 0.00 | 0.00 | 66 | 1028.7 | |
| 20260905212905 | 17 | 0.0 | 0.0 | 0.00 | 0.00 | 0.00 | 66 | 1029.1 | |
| 20260905211905 | 18 | 0.0 | 0.0 | 0.00 | 0.00 | 0.00 | 66 | 1029.0 | |
| 20260905210904 | 18 | 0.0 | 0.0 | 0.00 | 0.00 | 0.00 | 66 | 1029.0 |